Location: Ku?niki
(51.4449°N, 17.8974°E)
Time: 07:13:20
(UTC+00:00)

First-Move - Visible Passes

Search period start: 25 June 2022 00:00
Search period end: 05 July 2022 00:00
Orbit: 571 x 660 km, 97.6° (Epoch: 24 June)

Date Brightness Start Highest point End Pass type
(mag) Time Alt. Az. Time Alt. Az. Time Alt. Az.
26 Jun ? 01:26:17 10° ENE 01:26:54 10° E 01:27:31 10° E visible
27 Jun ? 01:40:36 10° NE 01:43:06 15° E 01:45:36 10° ESE visible
02 Jul ? 01:25:38 10° ENE 01:26:40 11° E 01:27:42 10° E visible
03 Jul ? 01:40:13 10° NE 01:42:50 15° E 01:45:28 10° ESE visible
